NKS1003 KDFW-KPHX

Flight info

Callsign NKS1003
Flight time N/A
Altitude 32000
Route WSTEX2 CIKAN EWM DRRVR PINNG1
Aircraft A20N/M-SDE2E3FGHIRWXY/LB1

Departure

Time 2026-05-06 00:30
Airport Dallas Fort Worth International Airport (KDFW)

Arrival

Time N/A
Airport Phoenix Sky Harbor International Airport (KPHX)
Time Latitude Longitude Altitude Speed Heading
2026-05-06 00:15 32.88401 -97.03543 579 ft 0 kts 295°
2026-05-06 00:22 32.88396 -97.03530 598 ft 3 kts 295°
2026-05-06 00:22 32.88380 -97.03499 598 ft 4 kts 324°
2026-05-06 00:22 32.88357 -97.03488 598 ft 2 kts 359°
2026-05-06 00:23 32.88356 -97.03488 598 ft 0 kts
2026-05-06 00:25 32.88358 -97.03488 598 ft 2 kts
2026-05-06 00:25 32.88418 -97.03488 598 ft 19 kts 360°
2026-05-06 00:25 32.88498 -97.03510 598 ft 7 kts 294°
2026-05-06 00:26 32.88499 -97.03584 598 ft 11 kts 271°
2026-05-06 00:26 32.88500 -97.03701 598 ft 20 kts 270°
2026-05-06 00:26 32.88502 -97.03924 598 ft 32 kts 271°
2026-05-06 00:26 32.88505 -97.04231 598 ft 41 kts 270°
2026-05-06 00:27 32.88505 -97.04540 598 ft 28 kts 270°
2026-05-06 00:27 32.88504 -97.04739 598 ft 19 kts 270°
2026-05-06 00:27 32.88480 -97.04889 598 ft 15 kts 218°
2026-05-06 00:27 32.88430 -97.04896 598 ft 18 kts 180°
2026-05-06 00:28 32.88276 -97.04897 598 ft 25 kts 180°
2026-05-06 00:28 32.88101 -97.04898 598 ft 21 kts 181°
2026-05-06 00:28 32.88060 -97.04928 598 ft 9 kts 244°
2026-05-06 00:28 32.88058 -97.05028 598 ft 15 kts 271°
2026-05-06 00:29 32.88131 -97.05094 598 ft 10 kts
2026-05-06 00:29 32.88146 -97.05094 598 ft 5 kts
2026-05-06 00:29 32.88319 -97.05095 598 ft 71 kts 360°
2026-05-06 00:29 32.89130 -97.05084 654 ft 154 kts 360°
2026-05-06 00:30 32.90304 -97.05056 1314 ft 189 kts 359°
2026-05-06 00:30 32.91767 -97.05054 2125 ft 224 kts 360°
2026-05-06 00:30 32.93380 -97.05086 3041 ft 248 kts 356°
2026-05-06 00:30 32.95160 -97.05487 3918 ft 266 kts 341°
2026-05-06 00:31 32.96897 -97.06259 5210 ft 265 kts 335°
2026-05-06 00:31 32.98619 -97.07037 6589 ft 264 kts 332°
2026-05-06 00:31 33.00079 -97.08290 7797 ft 257 kts 306°
2026-05-06 00:31 33.00912 -97.10131 9040 ft 250 kts 281°
2026-05-06 00:32 33.01015 -97.12159 10312 ft 246 kts 264°
2026-05-06 00:32 33.00884 -97.14183 11478 ft 248 kts 263°
2026-05-06 00:32 33.00751 -97.16239 12703 ft 249 kts 263°
2026-05-06 00:32 33.00603 -97.18320 13697 ft 260 kts 261°
2026-05-06 00:33 33.00378 -97.20557 14200 ft 283 kts 259°
2026-05-06 00:33 32.99911 -97.22898 14630 ft 305 kts 250°
2026-05-06 00:33 32.99678 -97.23650 14804 ft 309 kts 248°
2026-05-06 00:33 32.97831 -97.27354 16411 ft 315 kts 234°
2026-05-06 00:34 32.96475 -97.29418 17431 ft 317 kts 234°
2026-05-06 00:34 32.95119 -97.31508 18345 ft 321 kts 234°
2026-05-06 00:34 32.93744 -97.33631 19136 ft 325 kts 235°
2026-05-06 00:34 32.92372 -97.35746 19906 ft 328 kts 235°
2026-05-06 00:35 32.90964 -97.37912 20720 ft 331 kts 236°
2026-05-06 00:35 32.89544 -97.40093 21545 ft 334 kts 236°
2026-05-06 00:35 32.88109 -97.42295 22355 ft 338 kts 237°
2026-05-06 00:35 32.86674 -97.44496 23139 ft 342 kts 237°
2026-05-06 00:36 32.85209 -97.46744 23835 ft 345 kts 237°
2026-05-06 00:36 32.83730 -97.49011 24585 ft 346 kts 237°
2026-05-06 00:36 32.82250 -97.51283 25361 ft 348 kts 237°
2026-05-06 00:36 32.80771 -97.53551 26060 ft 350 kts 237°
2026-05-06 00:37 32.79276 -97.55843 26687 ft 353 kts 237°
2026-05-06 00:37 32.77763 -97.58161 27292 ft 355 kts 237°
2026-05-06 00:37 32.76243 -97.60489 27925 ft 357 kts 237°
2026-05-06 00:37 32.74713 -97.62830 28558 ft 359 kts 237°
2026-05-06 00:38 32.73177 -97.65177 29133 ft 362 kts 237°
2026-05-06 00:38 32.71638 -97.67528 29670 ft 364 kts 237°
2026-05-06 00:38 32.70127 -97.69949 30187 ft 364 kts 241°
2026-05-06 00:38 32.68897 -97.72578 30630 ft 364 kts 248°
2026-05-06 00:39 32.67996 -97.75388 30999 ft 365 kts 254°
2026-05-06 00:39 32.67433 -97.78330 31521 ft 363 kts 260°
2026-05-06 00:39 32.67174 -97.81268 31706 ft 361 kts 263°
2026-05-06 00:40 32.66734 -97.87193 31766 ft 360 kts 263°
2026-05-06 00:40 32.66274 -97.93116 31770 ft 360 kts 263°
2026-05-06 00:41 32.65811 -97.99001 31780 ft 361 kts 262°
2026-05-06 00:41 32.65339 -98.04952 31771 ft 361 kts 262°
2026-05-06 00:42 32.64866 -98.10892 31769 ft 360 kts 262°
2026-05-06 00:42 32.64394 -98.16778 31771 ft 360 kts 262°
2026-05-06 00:43 32.63916 -98.22710 31760 ft 360 kts 262°
2026-05-06 00:43 32.63441 -98.28596 31757 ft 361 kts 262°
2026-05-06 00:44 32.63037 -98.33565 31746 ft 360 kts 262°
2026-05-06 00:44 32.62555 -98.39468 31746 ft 362 kts 262°
2026-05-06 00:45 32.62065 -98.45423 31739 ft 362 kts 262°
2026-05-06 00:45 32.61578 -98.51330 31757 ft 361 kts 262°
2026-05-06 00:46 32.61084 -98.57272 31767 ft 361 kts 262°
2026-05-06 00:46 32.60587 -98.63210 31771 ft 361 kts 262°
2026-05-06 00:47 32.60091 -98.69111 31793 ft 361 kts 262°
2026-05-06 00:47 32.59590 -98.75051 31803 ft 361 kts 261°
2026-05-06 00:48 32.59085 -98.80993 31811 ft 361 kts 261°
2026-05-06 00:48 32.58579 -98.86904 31815 ft 361 kts 261°
2026-05-06 00:49 32.58068 -98.92849 31816 ft 361 kts 261°
2026-05-06 00:49 32.57557 -98.98757 31812 ft 361 kts 261°
2026-05-06 00:50 32.57042 -99.04685 31798 ft 361 kts 261°
2026-05-06 00:50 32.56524 -99.10608 31777 ft 361 kts 261°
2026-05-06 00:51 32.56006 -99.16495 31769 ft 360 kts 261°
2026-05-06 00:51 32.55483 -99.22420 31767 ft 360 kts 261°
2026-05-06 00:52 32.55151 -99.26154 31768 ft 360 kts 261°